owner,sensor,date,latitude,longitude,air_pressure(mBar),qcFlag 
LUMCON,ioos:station:LUMCON:101:1,2014-12-02T06:45:00Z,29.2533,-90.6633,767.1,1111122 
LUMCON,ioos:station:LUMCON:101:1,2014-12-02T14:45:00Z,29.2533,-90.6633,765.8,1111122 
LUMCON,ioos:station:LUMCON:101:1,2014-12-03T01:45:00Z,29.2533,-90.6633,765.7,1111122 
LUMCON,ioos:station:LUMCON:101:1,2014-12-03T13:45:00Z,29.2533,-90.6633,765.2,1111122 
LUMCON,ioos:station:LUMCON:101:1,2014-12-03T20:45:00Z,29.2533,-90.6633,765.7,1111122 
LUMCON,ioos:station:LUMCON:101:1,2014-12-04T05:45:00Z,29.2533,-90.6633,764.9,1111122 
LUMCON,ioos:station:LUMCON:101:1,2014-12-04T12:45:00Z,29.2533,-90.6633,765.4,1111122 
LUMCON,ioos:station:LUMCON:101:1,2014-12-04T13:45:00Z,29.2533,-90.6633,764.9,1111122 
LUMCON,ioos:station:LUMCON:101:1,2014-12-04T14:45:00Z,29.2533,-90.6633,764.6,1111122 
LUMCON,ioos:station:LUMCON:101:1,2014-12-04T15:45:00Z,29.2533,-90.6633,764.4,1111122 
LUMCON,ioos:station:LUMCON:101:1,2014-12-04T16:45:00Z,29.2533,-90.6633,764.5,1111122 
LUMCON,ioos:station:LUMCON:101:1,2014-12-04T17:45:00Z,29.2533,-90.6633,764.6,1111122 
LUMCON,ioos:station:LUMCON:101:1,2014-12-04T18:45:00Z,29.2533,-90.6633,764.9,1111122 
LUMCON,ioos:station:LUMCON:101:1,2014-12-04T19:45:00Z,29.2533,-90.6633,764.9,1111122 
LUMCON,ioos:station:LUMCON:101:1,2014-12-04T20:45:00Z,29.2533,-90.6633,765.0,1111122 
LUMCON,ioos:station:LUMCON:101:1,2014-12-04T21:45:00Z,29.2533,-90.6633,764.9,1111122 
LUMCON,ioos:station:LUMCON:101:1,2014-12-04T22:45:00Z,29.2533,-90.6633,764.9,1111122 
LUMCON,ioos:station:LUMCON:101:1,2014-12-04T23:45:00Z,29.2533,-90.6633,764.9,1111122 
LUMCON,ioos:station:LUMCON:101:1,2014-12-05T00:45:00Z,29.2533,-90.6633,765.0,1111122 
LUMCON,ioos:station:LUMCON:101:1,2014-12-05T01:45:00Z,29.2533,-90.6633,764.8,1111122 
LUMCON,ioos:station:LUMCON:101:1,2014-12-05T02:45:00Z,29.2533,-90.6633,764.6,1111122 
LUMCON,ioos:station:LUMCON:101:1,2014-12-05T03:45:00Z,29.2533,-90.6633,764.7,1111122 
LUMCON,ioos:station:LUMCON:101:1,2014-12-05T04:45:00Z,29.2533,-90.6633,764.8,1111122 
LUMCON,ioos:station:LUMCON:101:1,2014-12-05T05:45:00Z,29.2533,-90.6633,764.8,1111122 
LUMCON,ioos:station:LUMCON:101:1,2014-12-05T06:45:00Z,29.2533,-90.6633,765.2,1111122 
LUMCON,ioos:station:LUMCON:101:1,2014-12-05T07:45:00Z,29.2533,-90.6633,765.5,1111122 
LUMCON,ioos:station:LUMCON:101:1,2014-12-05T08:45:00Z,29.2533,-90.6633,765.9,1111122 
LUMCON,ioos:station:LUMCON:101:1,2014-12-05T09:45:00Z,29.2533,-90.6633,766.3,1111122 
LUMCON,ioos:station:LUMCON:101:1,2014-12-05T10:45:00Z,29.2533,-90.6633,766.6,1111122 
LUMCON,ioos:station:LUMCON:101:1,2014-12-05T11:45:00Z,29.2533,-90.6633,766.5,1111122 
LUMCON,ioos:station:LUMCON:101:1,2014-12-05T12:45:00Z,29.2533,-90.6633,766.1,1111122 
LUMCON,ioos:station:LUMCON:101:1,2014-12-05T13:45:00Z,29.2533,-90.6633,765.5,1111122 
LUMCON,ioos:station:LUMCON:101:1,2014-12-05T14:45:00Z,29.2533,-90.6633,765.2,1111122 
LUMCON,ioos:station:LUMCON:101:1,2014-12-05T15:45:00Z,29.2533,-90.6633,764.9,1111122 
LUMCON,ioos:station:LUMCON:101:1,2014-12-05T16:45:00Z,29.2533,-90.6633,764.9,1111122 
LUMCON,ioos:station:LUMCON:101:1,2014-12-05T17:45:00Z,29.2533,-90.6633,764.9,1111122 
LUMCON,ioos:station:LUMCON:101:1,2014-12-05T18:45:00Z,29.2533,-90.6633,765.2,1111122 
LUMCON,ioos:station:LUMCON:101:1,2014-12-05T19:45:00Z,29.2533,-90.6633,765.5,1111122 
LUMCON,ioos:station:LUMCON:101:1,2014-12-05T20:45:00Z,29.2533,-90.6633,766.0,1111122 
LUMCON,ioos:station:LUMCON:101:1,2014-12-05T21:45:00Z,29.2533,-90.6633,766.1,1111122 
LUMCON,ioos:station:LUMCON:101:1,2014-12-05T22:45:00Z,29.2533,-90.6633,766.2,1111122 
LUMCON,ioos:station:LUMCON:101:1,2014-12-05T23:45:00Z,29.2533,-90.6633,766.2,1111122 
LUMCON,ioos:station:LUMCON:101:1,2014-12-06T00:45:00Z,29.2533,-90.6633,766.4,1111122 
LUMCON,ioos:station:LUMCON:101:1,2014-12-06T02:45:00Z,29.2533,-90.6633,766.1,1111122 
LUMCON,ioos:station:LUMCON:101:1,2014-12-06T03:45:00Z,29.2533,-90.6633,766.1,1111122 
LUMCON,ioos:station:LUMCON:101:1,2014-12-06T04:45:00Z,29.2533,-90.6633,766.0,1111122 
LUMCON,ioos:station:LUMCON:101:1,2014-12-06T05:45:00Z,29.2533,-90.6633,766.0,1111122 
LUMCON,ioos:station:LUMCON:101:1,2014-12-06T06:45:00Z,29.2533,-90.6633,766.4,1111122 
LUMCON,ioos:station:LUMCON:101:1,2014-12-06T07:45:00Z,29.2533,-90.6633,766.6,1111122 
LUMCON,ioos:station:LUMCON:101:1,2014-12-06T08:45:00Z,29.2533,-90.6633,767.0,1111122 
LUMCON,ioos:station:LUMCON:101:1,2014-12-06T09:45:00Z,29.2533,-90.6633,767.3,1111122 
LUMCON,ioos:station:LUMCON:101:1,2014-12-06T10:45:00Z,29.2533,-90.6633,767.5,1111122 
LUMCON,ioos:station:LUMCON:101:1,2014-12-06T11:45:00Z,29.2533,-90.6633,767.2,1111122 
LUMCON,ioos:station:LUMCON:101:1,2014-12-06T12:45:00Z,29.2533,-90.6633,766.6,1111122 
LUMCON,ioos:station:LUMCON:101:1,2014-12-06T13:45:00Z,29.2533,-90.6633,766.1,1111122 
LUMCON,ioos:station:LUMCON:101:1,2014-12-06T14:45:00Z,29.2533,-90.6633,765.5,1111122 
LUMCON,ioos:station:LUMCON:101:1,2014-12-06T15:45:00Z,29.2533,-90.6633,765.5,1111122 
LUMCON,ioos:station:LUMCON:101:1,2014-12-06T16:45:00Z,29.2533,-90.6633,765.5,1111122 
LUMCON,ioos:station:LUMCON:101:1,2014-12-06T17:45:00Z,29.2533,-90.6633,765.5,1111122 
LUMCON,ioos:station:LUMCON:101:1,2014-12-06T18:45:00Z,29.2533,-90.6633,765.7,1111122 
LUMCON,ioos:station:LUMCON:101:1,2014-12-06T19:45:00Z,29.2533,-90.6633,766.1,1111122 
LUMCON,ioos:station:LUMCON:101:1,2014-12-06T20:45:00Z,29.2533,-90.6633,766.6,1111122 
LUMCON,ioos:station:LUMCON:101:1,2014-12-06T21:45:00Z,29.2533,-90.6633,766.8,1111122 
LUMCON,ioos:station:LUMCON:101:1,2014-12-06T22:45:00Z,29.2533,-90.6633,767.1,1111122 
LUMCON,ioos:station:LUMCON:101:1,2014-12-06T23:45:00Z,29.2533,-90.6633,767.3,1111122 
LUMCON,ioos:station:LUMCON:101:1,2014-12-07T00:45:00Z,29.2533,-90.6633,767.2,1111122 
LUMCON,ioos:station:LUMCON:101:1,2014-12-07T01:45:00Z,29.2533,-90.6633,767.0,1111122 
LUMCON,ioos:station:LUMCON:101:1,2014-12-07T02:45:00Z,29.2533,-90.6633,767.4,1111122 
LUMCON,ioos:station:LUMCON:101:1,2014-12-07T03:45:00Z,29.2533,-90.6633,767.5,1111122 
LUMCON,ioos:station:LUMCON:101:1,2014-12-07T04:45:00Z,29.2533,-90.6633,767.3,1111122 
LUMCON,ioos:station:LUMCON:101:1,2014-12-07T05:45:00Z,29.2533,-90.6633,767.5,1111122 
LUMCON,ioos:station:LUMCON:101:1,2014-12-07T06:45:00Z,29.2533,-90.6633,767.6,1111122 
LUMCON,ioos:station:LUMCON:101:1,2014-12-07T07:45:00Z,29.2533,-90.6633,767.7,1111122 
LUMCON,ioos:station:LUMCON:101:1,2014-12-07T08:45:00Z,29.2533,-90.6633,768.2,1111122 
LUMCON,ioos:station:LUMCON:101:1,2014-12-07T09:45:00Z,29.2533,-90.6633,768.7,1111122 
LUMCON,ioos:station:LUMCON:101:1,2014-12-07T10:45:00Z,29.2533,-90.6633,768.8,1111122 
LUMCON,ioos:station:LUMCON:101:1,2014-12-07T11:45:00Z,29.2533,-90.6633,768.8,1111122 
LUMCON,ioos:station:LUMCON:101:1,2014-12-07T12:45:00Z,29.2533,-90.6633,768.5,1111122 
LUMCON,ioos:station:LUMCON:101:1,2014-12-07T13:45:00Z,29.2533,-90.6633,767.4,1111122 
LUMCON,ioos:station:LUMCON:101:1,2014-12-07T14:45:00Z,29.2533,-90.6633,766.9,1111122 
LUMCON,ioos:station:LUMCON:101:1,2014-12-07T15:45:00Z,29.2533,-90.6633,766.6,1111122 
LUMCON,ioos:station:LUMCON:101:1,2014-12-07T16:45:00Z,29.2533,-90.6633,766.6,1111122 
LUMCON,ioos:station:LUMCON:101:1,2014-12-07T17:45:00Z,29.2533,-90.6633,766.7,1111122 
LUMCON,ioos:station:LUMCON:101:1,2014-12-07T18:45:00Z,29.2533,-90.6633,766.5,1111122 
LUMCON,ioos:station:LUMCON:101:1,2014-12-07T19:45:00Z,29.2533,-90.6633,766.7,1111122 
LUMCON,ioos:station:LUMCON:101:1,2014-12-07T20:45:00Z,29.2533,-90.6633,766.6,1111122 
LUMCON,ioos:station:LUMCON:101:1,2014-12-07T21:45:00Z,29.2533,-90.6633,766.8,1111122 
LUMCON,ioos:station:LUMCON:101:1,2014-12-07T22:45:00Z,29.2533,-90.6633,767.0,1111122 
LUMCON,ioos:station:LUMCON:101:1,2014-12-07T23:45:00Z,29.2533,-90.6633,767.0,1111122 
LUMCON,ioos:station:LUMCON:101:1,2014-12-08T00:45:00Z,29.2533,-90.6633,767.0,1111122 
LUMCON,ioos:station:LUMCON:101:1,2014-12-08T01:45:00Z,29.2533,-90.6633,766.7,1111122 
LUMCON,ioos:station:LUMCON:101:1,2014-12-08T02:45:00Z,29.2533,-90.6633,766.6,1111122 
LUMCON,ioos:station:LUMCON:101:1,2014-12-08T03:45:00Z,29.2533,-90.6633,766.3,1111122 
LUMCON,ioos:station:LUMCON:101:1,2014-12-08T04:45:00Z,29.2533,-90.6633,766.7,1111122 
LUMCON,ioos:station:LUMCON:101:1,2014-12-08T05:45:00Z,29.2533,-90.6633,766.1,1111122 
LUMCON,ioos:station:LUMCON:101:1,2014-12-08T06:45:00Z,29.2533,-90.6633,766.8,1111122 
LUMCON,ioos:station:LUMCON:101:1,2014-12-08T07:45:00Z,29.2533,-90.6633,766.9,1111122 
LUMCON,ioos:station:LUMCON:101:1,2014-12-08T08:45:00Z,29.2533,-90.6633,767.0,1111122 
LUMCON,ioos:station:LUMCON:101:1,2014-12-08T09:45:00Z,29.2533,-90.6633,767.5,1111122 
LUMCON,ioos:station:LUMCON:101:1,2014-12-08T10:45:00Z,29.2533,-90.6633,767.9,1111122 
LUMCON,ioos:station:LUMCON:101:1,2014-12-08T11:45:00Z,29.2533,-90.6633,767.6,1111122 
LUMCON,ioos:station:LUMCON:101:1,2014-12-08T12:45:00Z,29.2533,-90.6633,766.9,1111122 
LUMCON,ioos:station:LUMCON:101:1,2014-12-08T13:45:00Z,29.2533,-90.6633,766.2,1111122 
LUMCON,ioos:station:LUMCON:101:1,2014-12-08T14:45:00Z,29.2533,-90.6633,765.8,1111122 
LUMCON,ioos:station:LUMCON:101:1,2014-12-08T17:45:00Z,29.2533,-90.6633,766.0,1111122 
LUMCON,ioos:station:LUMCON:101:1,2014-12-08T18:45:00Z,29.2533,-90.6633,766.3,1111122 
LUMCON,ioos:station:LUMCON:101:1,2014-12-08T19:45:00Z,29.2533,-90.6633,766.5,1111122 
LUMCON,ioos:station:LUMCON:101:1,2014-12-08T20:45:00Z,29.2533,-90.6633,767.0,1111122 
LUMCON,ioos:station:LUMCON:101:1,2014-12-08T21:45:00Z,29.2533,-90.6633,767.4,1111122 
LUMCON,ioos:station:LUMCON:101:1,2014-12-08T22:45:00Z,29.2533,-90.6633,767.3,1111122 
LUMCON,ioos:station:LUMCON:101:1,2014-12-08T23:45:00Z,29.2533,-90.6633,767.5,1111122 
LUMCON,ioos:station:LUMCON:101:1,2014-12-09T00:45:00Z,29.2533,-90.6633,767.4,1111122 
LUMCON,ioos:station:LUMCON:101:1,2014-12-09T01:45:00Z,29.2533,-90.6633,767.2,1111122 
LUMCON,ioos:station:LUMCON:101:1,2014-12-09T02:45:00Z,29.2533,-90.6633,767.1,1111122 
LUMCON,ioos:station:LUMCON:101:1,2014-12-09T03:45:00Z,29.2533,-90.6633,767.1,1111122 
LUMCON,ioos:station:LUMCON:101:1,2014-12-09T04:45:00Z,29.2533,-90.6633,767.0,1111122 
LUMCON,ioos:station:LUMCON:101:1,2014-12-09T05:45:00Z,29.2533,-90.6633,767.3,1111122 
LUMCON,ioos:station:LUMCON:101:1,2014-12-09T06:45:00Z,29.2533,-90.6633,767.7,1111122 
LUMCON,ioos:station:LUMCON:101:1,2014-12-09T07:45:00Z,29.2533,-90.6633,768.0,1111122 
LUMCON,ioos:station:LUMCON:101:1,2014-12-09T08:45:00Z,29.2533,-90.6633,768.3,1111122 
LUMCON,ioos:station:LUMCON:101:1,2014-12-09T09:45:00Z,29.2533,-90.6633,768.7,1111122 
LUMCON,ioos:station:LUMCON:101:1,2014-12-09T10:45:00Z,29.2533,-90.6633,768.8,1111122 
LUMCON,ioos:station:LUMCON:101:1,2014-12-09T11:45:00Z,29.2533,-90.6633,768.3,1111122 
LUMCON,ioos:station:LUMCON:101:1,2014-12-09T12:45:00Z,29.2533,-90.6633,767.9,1111122 
LUMCON,ioos:station:LUMCON:101:1,2014-12-09T13:45:00Z,29.2533,-90.6633,767.0,1111122 
LUMCON,ioos:station:LUMCON:101:1,2014-12-09T14:45:00Z,29.2533,-90.6633,766.6,1111122 
LUMCON,ioos:station:LUMCON:101:1,2014-12-09T15:45:00Z,29.2533,-90.6633,766.1,1111122 
LUMCON,ioos:station:LUMCON:101:1,2014-12-09T16:45:00Z,29.2533,-90.6633,766.1,1111122 
LUMCON,ioos:station:LUMCON:101:1,2014-12-09T17:45:00Z,29.2533,-90.6633,766.1,1111122 
LUMCON,ioos:station:LUMCON:101:1,2014-12-10T14:45:00Z,29.2533,-90.6633,766.1,1111122 
LUMCON,ioos:station:LUMCON:101:1,2014-12-10T15:45:00Z,29.2533,-90.6633,765.8,1111122 
LUMCON,ioos:station:LUMCON:101:1,2014-12-10T16:45:00Z,29.2533,-90.6633,765.5,1111122 
LUMCON,ioos:station:LUMCON:101:1,2014-12-10T17:45:00Z,29.2533,-90.6633,765.5,1111122 
LUMCON,ioos:station:LUMCON:101:1,2014-12-10T18:45:00Z,29.2533,-90.6633,766.0,1111122 
LUMCON,ioos:station:LUMCON:101:1,2014-12-10T19:45:00Z,29.2533,-90.6633,766.1,1111122 
LUMCON,ioos:station:LUMCON:101:1,2014-12-10T21:45:00Z,29.2533,-90.6633,766.7,1111122 
LUMCON,ioos:station:LUMCON:101:1,2014-12-10T22:45:00Z,29.2533,-90.6633,766.5,1111122 
LUMCON,ioos:station:LUMCON:101:1,2014-12-10T23:45:00Z,29.2533,-90.6633,766.3,1111122 
LUMCON,ioos:station:LUMCON:101:1,2014-12-11T00:45:00Z,29.2533,-90.6633,766.0,1111122 
LUMCON,ioos:station:LUMCON:101:1,2014-12-11T01:45:00Z,29.2533,-90.6633,765.9,1111122 
LUMCON,ioos:station:LUMCON:101:1,2014-12-11T03:45:00Z,29.2533,-90.6633,766.3,1111122 
LUMCON,ioos:station:LUMCON:101:1,2014-12-11T05:45:00Z,29.2533,-90.6633,766.4,1111122 
LUMCON,ioos:station:LUMCON:101:1,2014-12-11T06:45:00Z,29.2533,-90.6633,767.1,1111122 
LUMCON,ioos:station:LUMCON:101:1,2014-12-11T07:45:00Z,29.2533,-90.6633,767.3,1111122 
LUMCON,ioos:station:LUMCON:101:1,2014-12-11T08:45:00Z,29.2533,-90.6633,767.8,1111122 
LUMCON,ioos:station:LUMCON:101:1,2014-12-11T09:45:00Z,29.2533,-90.6633,768.1,1111122 
LUMCON,ioos:station:LUMCON:101:1,2014-12-11T10:45:00Z,29.2533,-90.6633,768.6,1111122 
LUMCON,ioos:station:LUMCON:101:1,2014-12-11T11:45:00Z,29.2533,-90.6633,768.4,1111122 
LUMCON,ioos:station:LUMCON:101:1,2014-12-11T12:45:00Z,29.2533,-90.6633,767.9,1111122 
LUMCON,ioos:station:LUMCON:101:1,2014-12-11T14:45:00Z,29.2533,-90.6633,766.7,1111122 
LUMCON,ioos:station:LUMCON:101:1,2014-12-11T15:45:00Z,29.2533,-90.6633,766.5,1111122 
LUMCON,ioos:station:LUMCON:101:1,2014-12-11T16:45:00Z,29.2533,-90.6633,766.7,1111122 
LUMCON,ioos:station:LUMCON:101:1,2014-12-11T17:45:00Z,29.2533,-90.6633,766.8,1111122 
LUMCON,ioos:station:LUMCON:101:1,2014-12-11T18:45:00Z,29.2533,-90.6633,767.3,1111122 
LUMCON,ioos:station:LUMCON:101:1,2014-12-11T19:45:00Z,29.2533,-90.6633,767.6,1111122 
LUMCON,ioos:station:LUMCON:101:1,2014-12-11T20:45:00Z,29.2533,-90.6633,767.9,1111122 
LUMCON,ioos:station:LUMCON:101:1,2014-12-11T21:45:00Z,29.2533,-90.6633,767.9,1111122 
LUMCON,ioos:station:LUMCON:101:1,2014-12-11T22:45:00Z,29.2533,-90.6633,768.3,1111122 
LUMCON,ioos:station:LUMCON:101:1,2014-12-11T23:45:00Z,29.2533,-90.6633,768.4,1111122 
LUMCON,ioos:station:LUMCON:101:1,2014-12-12T00:45:00Z,29.2533,-90.6633,768.0,1111122 
LUMCON,ioos:station:LUMCON:101:1,2014-12-12T01:45:00Z,29.2533,-90.6633,767.9,1111122 
LUMCON,ioos:station:LUMCON:101:1,2014-12-12T02:45:00Z,29.2533,-90.6633,768.2,1111122 
LUMCON,ioos:station:LUMCON:101:1,2014-12-12T03:45:00Z,29.2533,-90.6633,768.3,1111122 
LUMCON,ioos:station:LUMCON:101:1,2014-12-12T04:45:00Z,29.2533,-90.6633,768.5,1111122 
LUMCON,ioos:station:LUMCON:101:1,2014-12-12T06:45:00Z,29.2533,-90.6633,768.9,1111122 
LUMCON,ioos:station:LUMCON:101:1,2014-12-12T07:45:00Z,29.2533,-90.6633,769.2,1111122 
LUMCON,ioos:station:LUMCON:101:1,2014-12-12T08:45:00Z,29.2533,-90.6633,769.5,1111122 
LUMCON,ioos:station:LUMCON:101:1,2014-12-12T09:45:00Z,29.2533,-90.6633,770.0,1111122 
LUMCON,ioos:station:LUMCON:101:1,2014-12-12T10:45:00Z,29.2533,-90.6633,770.1,1111122 
LUMCON,ioos:station:LUMCON:101:1,2014-12-12T11:45:00Z,29.2533,-90.6633,770.3,1111122 
LUMCON,ioos:station:LUMCON:101:1,2014-12-12T12:45:00Z,29.2533,-90.6633,769.6,1111122 
LUMCON,ioos:station:LUMCON:101:1,2014-12-12T13:45:00Z,29.2533,-90.6633,769.1,1111122 
LUMCON,ioos:station:LUMCON:101:1,2014-12-12T14:45:00Z,29.2533,-90.6633,768.4,1111122 
LUMCON,ioos:station:LUMCON:101:1,2014-12-12T15:45:00Z,29.2533,-90.6633,767.9,1111122 
LUMCON,ioos:station:LUMCON:101:1,2014-12-12T16:30:00Z,29.2533,-90.6633,767.9,1111122 
LUMCON,ioos:station:LUMCON:101:1,2014-12-12T17:45:00Z,29.2533,-90.6633,768.2,1111122 
LUMCON,ioos:station:LUMCON:101:1,2014-12-12T18:45:00Z,29.2533,-90.6633,768.2,1111122 
LUMCON,ioos:station:LUMCON:101:1,2014-12-12T19:45:00Z,29.2533,-90.6633,768.6,1111122 
LUMCON,ioos:station:LUMCON:101:1,2014-12-12T20:45:00Z,29.2533,-90.6633,768.8,1111122 
LUMCON,ioos:station:LUMCON:101:1,2014-12-12T21:45:00Z,29.2533,-90.6633,768.8,1111122 
LUMCON,ioos:station:LUMCON:101:1,2014-12-12T22:45:00Z,29.2533,-90.6633,768.8,1111122 
LUMCON,ioos:station:LUMCON:101:1,2014-12-12T23:45:00Z,29.2533,-90.6633,768.5,1111122 
LUMCON,ioos:station:LUMCON:101:1,2014-12-13T00:45:00Z,29.2533,-90.6633,768.3,1111122 
LUMCON,ioos:station:LUMCON:101:1,2014-12-13T01:45:00Z,29.2533,-90.6633,768.2,1111122 
LUMCON,ioos:station:LUMCON:101:1,2014-12-13T02:45:00Z,29.2533,-90.6633,767.9,1111122 
LUMCON,ioos:station:LUMCON:101:1,2014-12-13T03:45:00Z,29.2533,-90.6633,767.8,1111122 
LUMCON,ioos:station:LUMCON:101:1,2014-12-13T04:45:00Z,29.2533,-90.6633,767.9,1111122 
LUMCON,ioos:station:LUMCON:101:1,2014-12-13T05:45:00Z,29.2533,-90.6633,767.9,1111122 
LUMCON,ioos:station:LUMCON:101:1,2014-12-13T06:45:00Z,29.2533,-90.6633,768.0,1111122 
LUMCON,ioos:station:LUMCON:101:1,2014-12-13T07:45:00Z,29.2533,-90.6633,768.4,1111122 
LUMCON,ioos:station:LUMCON:101:1,2014-12-13T08:45:00Z,29.2533,-90.6633,768.7,1111122 
LUMCON,ioos:station:LUMCON:101:1,2014-12-13T09:45:00Z,29.2533,-90.6633,769.0,1111122 
LUMCON,ioos:station:LUMCON:101:1,2014-12-13T10:45:00Z,29.2533,-90.6633,769.1,1111122 
LUMCON,ioos:station:LUMCON:101:1,2014-12-13T11:45:00Z,29.2533,-90.6633,768.8,1111122 
LUMCON,ioos:station:LUMCON:101:1,2014-12-13T12:45:00Z,29.2533,-90.6633,768.0,1111122 
LUMCON,ioos:station:LUMCON:101:1,2014-12-13T13:45:00Z,29.2533,-90.6633,767.1,1111122 
LUMCON,ioos:station:LUMCON:101:1,2014-12-13T14:45:00Z,29.2533,-90.6633,766.7,1111122 
LUMCON,ioos:station:LUMCON:101:1,2014-12-13T15:45:00Z,29.2533,-90.6633,766.2,1111122 
LUMCON,ioos:station:LUMCON:101:1,2014-12-13T16:45:00Z,29.2533,-90.6633,766.0,1111122 
LUMCON,ioos:station:LUMCON:101:1,2014-12-13T17:45:00Z,29.2533,-90.6633,766.1,1111122 
LUMCON,ioos:station:LUMCON:101:1,2014-12-13T18:45:00Z,29.2533,-90.6633,766.1,1111122 
LUMCON,ioos:station:LUMCON:101:1,2014-12-13T19:45:00Z,29.2533,-90.6633,766.2,1111122 
LUMCON,ioos:station:LUMCON:101:1,2014-12-13T20:45:00Z,29.2533,-90.6633,766.4,1111122 
LUMCON,ioos:station:LUMCON:101:1,2014-12-13T21:45:00Z,29.2533,-90.6633,766.3,1111122 
LUMCON,ioos:station:LUMCON:101:1,2014-12-13T22:45:00Z,29.2533,-90.6633,766.3,1111122 
LUMCON,ioos:station:LUMCON:101:1,2014-12-13T23:45:00Z,29.2533,-90.6633,766.1,1111122 
LUMCON,ioos:station:LUMCON:101:1,2014-12-14T00:45:00Z,29.2533,-90.6633,765.7,1111122 
LUMCON,ioos:station:LUMCON:101:1,2014-12-14T01:45:00Z,29.2533,-90.6633,765.2,1111122 
LUMCON,ioos:station:LUMCON:101:1,2014-12-14T02:45:00Z,29.2533,-90.6633,765.2,1111122 
LUMCON,ioos:station:LUMCON:101:1,2014-12-14T03:45:00Z,29.2533,-90.6633,764.9,1111122 
LUMCON,ioos:station:LUMCON:101:1,2014-12-14T04:45:00Z,29.2533,-90.6633,764.7,1111122 
LUMCON,ioos:station:LUMCON:101:1,2014-12-14T05:45:00Z,29.2533,-90.6633,764.6,1111122 
LUMCON,ioos:station:LUMCON:101:1,2014-12-14T06:45:00Z,29.2533,-90.6633,764.9,1111122 
LUMCON,ioos:station:LUMCON:101:1,2014-12-14T07:45:00Z,29.2533,-90.6633,765.0,1111122 
LUMCON,ioos:station:LUMCON:101:1,2014-12-14T08:45:00Z,29.2533,-90.6633,765.2,1111122 
LUMCON,ioos:station:LUMCON:101:1,2014-12-14T09:45:00Z,29.2533,-90.6633,765.5,1111122 
LUMCON,ioos:station:LUMCON:101:1,2014-12-14T10:45:00Z,29.2533,-90.6633,765.8,1111122 
LUMCON,ioos:station:LUMCON:101:1,2014-12-14T11:30:00Z,29.2533,-90.6633,765.7,1111122 
LUMCON,ioos:station:LUMCON:101:1,2014-12-14T12:45:00Z,29.2533,-90.6633,764.8,1111122 
LUMCON,ioos:station:LUMCON:101:1,2014-12-14T13:45:00Z,29.2533,-90.6633,764.0,1111122 
LUMCON,ioos:station:LUMCON:101:1,2014-12-14T14:45:00Z,29.2533,-90.6633,763.6,1111122 
LUMCON,ioos:station:LUMCON:101:1,2014-12-14T15:45:00Z,29.2533,-90.6633,763.2,1111122 
LUMCON,ioos:station:LUMCON:101:1,2014-12-14T16:45:00Z,29.2533,-90.6633,763.1,1111122 
LUMCON,ioos:station:LUMCON:101:1,2014-12-14T17:45:00Z,29.2533,-90.6633,763.1,1111122 
LUMCON,ioos:station:LUMCON:101:1,2014-12-14T18:45:00Z,29.2533,-90.6633,762.8,1111122 
LUMCON,ioos:station:LUMCON:101:1,2014-12-14T19:45:00Z,29.2533,-90.6633,763.0,1111122 
LUMCON,ioos:station:LUMCON:101:1,2014-12-14T20:45:00Z,29.2533,-90.6633,763.0,1111122 
LUMCON,ioos:station:LUMCON:101:1,2014-12-14T21:45:00Z,29.2533,-90.6633,763.1,1111122 
LUMCON,ioos:station:LUMCON:101:1,2014-12-14T22:45:00Z,29.2533,-90.6633,763.2,1111122 
LUMCON,ioos:station:LUMCON:101:1,2014-12-14T23:45:00Z,29.2533,-90.6633,762.8,1111122 
LUMCON,ioos:station:LUMCON:101:1,2014-12-15T00:45:00Z,29.2533,-90.6633,762.8,1111122 
LUMCON,ioos:station:LUMCON:101:1,2014-12-15T01:45:00Z,29.2533,-90.6633,762.3,1111122 
LUMCON,ioos:station:LUMCON:101:1,2014-12-15T02:45:00Z,29.2533,-90.6633,762.2,1111122 
LUMCON,ioos:station:LUMCON:101:1,2014-12-15T03:45:00Z,29.2533,-90.6633,761.9,1111122 
LUMCON,ioos:station:LUMCON:101:1,2014-12-15T04:45:00Z,29.2533,-90.6633,761.7,1111122 
LUMCON,ioos:station:LUMCON:101:1,2014-12-15T05:45:00Z,29.2533,-90.6633,761.6,1111122 
LUMCON,ioos:station:LUMCON:101:1,2014-12-15T06:45:00Z,29.2533,-90.6633,761.7,1111122 
LUMCON,ioos:station:LUMCON:101:1,2014-12-15T07:45:00Z,29.2533,-90.6633,761.9,1111122 
LUMCON,ioos:station:LUMCON:101:1,2014-12-15T08:45:00Z,29.2533,-90.6633,762.2,1111122 
LUMCON,ioos:station:LUMCON:101:1,2014-12-15T09:45:00Z,29.2533,-90.6633,762.5,1111122 
LUMCON,ioos:station:LUMCON:101:1,2014-12-15T10:45:00Z,29.2533,-90.6633,762.8,1111122 
LUMCON,ioos:station:LUMCON:101:1,2014-12-15T11:45:00Z,29.2533,-90.6633,762.5,1111122 
LUMCON,ioos:station:LUMCON:101:1,2014-12-15T12:45:00Z,29.2533,-90.6633,762.0,1111122 
LUMCON,ioos:station:LUMCON:101:1,2014-12-15T13:45:00Z,29.2533,-90.6633,761.5,1111122 
LUMCON,ioos:station:LUMCON:101:1,2014-12-15T14:45:00Z,29.2533,-90.6633,761.2,1111122 
LUMCON,ioos:station:LUMCON:101:1,2014-12-15T15:45:00Z,29.2533,-90.6633,761.0,1111122 
LUMCON,ioos:station:LUMCON:101:1,2014-12-15T16:45:00Z,29.2533,-90.6633,761.0,1111122 
LUMCON,ioos:station:LUMCON:101:1,2014-12-15T17:45:00Z,29.2533,-90.6633,761.2,1111122 
LUMCON,ioos:station:LUMCON:101:1,2014-12-15T18:45:00Z,29.2533,-90.6633,761.6,1111122 
LUMCON,ioos:station:LUMCON:101:1,2014-12-15T19:45:00Z,29.2533,-90.6633,762.0,1111122 
LUMCON,ioos:station:LUMCON:101:1,2014-12-15T20:45:00Z,29.2533,-90.6633,762.3,1111122 
LUMCON,ioos:station:LUMCON:101:1,2014-12-15T21:45:00Z,29.2533,-90.6633,762.6,1111122 
LUMCON,ioos:station:LUMCON:101:1,2014-12-15T22:45:00Z,29.2533,-90.6633,762.9,1111122 
LUMCON,ioos:station:LUMCON:101:1,2014-12-15T23:45:00Z,29.2533,-90.6633,763.3,1111122 
LUMCON,ioos:station:LUMCON:101:1,2014-12-16T01:45:00Z,29.2533,-90.6633,763.0,1111122 
LUMCON,ioos:station:LUMCON:101:1,2014-12-16T02:45:00Z,29.2533,-90.6633,763.0,1111122 
LUMCON,ioos:station:LUMCON:101:1,2014-12-16T03:45:00Z,29.2533,-90.6633,763.1,1111122 
LUMCON,ioos:station:LUMCON:101:1,2014-12-16T04:45:00Z,29.2533,-90.6633,763.7,1111122 
LUMCON,ioos:station:LUMCON:101:1,2014-12-16T05:45:00Z,29.2533,-90.6633,764.2,1111122 
LUMCON,ioos:station:LUMCON:101:1,2014-12-16T10:45:00Z,29.2533,-90.6633,767.0,1111122 
LUMCON,ioos:station:LUMCON:101:1,2014-12-16T11:45:00Z,29.2533,-90.6633,766.7,1111122 
LUMCON,ioos:station:LUMCON:101:1,2014-12-16T12:45:00Z,29.2533,-90.6633,766.2,1111122 
LUMCON,ioos:station:LUMCON:101:1,2014-12-16T13:45:00Z,29.2533,-90.6633,765.5,1111122 
LUMCON,ioos:station:LUMCON:101:1,2014-12-16T14:45:00Z,29.2533,-90.6633,764.9,1111122 
LUMCON,ioos:station:LUMCON:101:1,2014-12-16T15:45:00Z,29.2533,-90.6633,764.9,1111122 
LUMCON,ioos:station:LUMCON:101:1,2014-12-16T16:45:00Z,29.2533,-90.6633,765.1,1111122 
LUMCON,ioos:station:LUMCON:101:1,2014-12-16T17:45:00Z,29.2533,-90.6633,765.5,1111122 
LUMCON,ioos:station:LUMCON:101:1,2014-12-16T18:45:00Z,29.2533,-90.6633,765.9,1111122 
LUMCON,ioos:station:LUMCON:101:1,2014-12-16T19:45:00Z,29.2533,-90.6633,766.3,1111122 
LUMCON,ioos:station:LUMCON:101:1,2014-12-16T20:45:00Z,29.2533,-90.6633,766.8,1111122 
LUMCON,ioos:station:LUMCON:101:1,2014-12-16T21:45:00Z,29.2533,-90.6633,767.0,1111122 
LUMCON,ioos:station:LUMCON:101:1,2014-12-16T22:45:00Z,29.2533,-90.6633,767.5,1111122 
LUMCON,ioos:station:LUMCON:101:1,2014-12-16T23:45:00Z,29.2533,-90.6633,767.6,1111122 
LUMCON,ioos:station:LUMCON:101:1,2014-12-17T00:45:00Z,29.2533,-90.6633,767.3,1111122 
LUMCON,ioos:station:LUMCON:101:1,2014-12-17T01:45:00Z,29.2533,-90.6633,767.3,1111122 
LUMCON,ioos:station:LUMCON:101:1,2014-12-17T02:45:00Z,29.2533,-90.6633,767.7,1111122 
LUMCON,ioos:station:LUMCON:101:1,2014-12-17T03:45:00Z,29.2533,-90.6633,767.3,1111122 
LUMCON,ioos:station:LUMCON:101:1,2014-12-17T04:45:00Z,29.2533,-90.6633,766.9,1111122 